sat.trackr.live / text

‹ back to catalog

LEMUR-2-DELOITTE-6

NORAD 69882 · 2026-156P

PAYLOAD ACTIVE UNKNOWN

§ Identity

Operator
Country
US
Launch date
2026-07-07
Launch site
AFWTR
Launch vehicle
Mass (kg)
RCS (m²)

External: N2YO · Heavens-Above · Gunter

§ Orbital elements

Epoch: 2026-09-19T23:01:00.861600Z

Period
96.56 min
Inclination
97.7482°
Eccentricity
0.0001876
Mean motion
14.91352311 rev/d
Perigee alt
592.4 km
Apogee alt
595.0 km
Semi-major
6,971.9 km
B*
1.2722e-4
RAAN
162.1236°
Arg perigee
271.8171°
Mean anomaly
88.2833°
Rev number
1,112

§ Raw data

LEMUR-2-DELOITTE-61 69882U 26156P   26262.95903775  .00001213  00000+0  12722-3 0  99992 69882  97.7482 162.1236 0001876 271.8171  88.2833 14.91352311 11129

JSON: /api/v1/satellites/69882 · /tle

For live sub-satellite position, see the globe view (requires WebGL).

§ Visibility from observer

Set your observer location to see the next 7 days of passes ≥ 10°. The values pass through the URL so the page stays shareable.

No JS? Fill the form by hand. The geolocation button needs JavaScript.